This is the latest recevied weather packets stored in our database for station/object NA9VY-8. If no packets are shown the sender has not sent any weather packets the latest 10 day(s).
| Time | Temp. | Humidity | Pressure | Rain* | Wind** | Luminosity | Snow |
|---|---|---|---|---|---|---|---|
| 1778029238 | 9.44° C | 99% | 1009.7 hPa | 10.16 mm | - | 0 W/m² | - |
| 1778028935 | 9.44° C | 99% | 1010.1 hPa | 8.89 mm | - | 0 W/m² | - |
| 1778028631 | 9.44° C | 99% | 1010.1 hPa | 8.89 mm | - | 0 W/m² | - |
| 1778028329 | 10° C | 99% | 1010.2 hPa | 3.05 mm | - | 0 W/m² | - |
| 1778028026 | 10° C | 99% | 1010.3 hPa | 4.83 mm | - | 0 W/m² | - |
| 1778027722 | 10° C | 99% | 1009.7 hPa | 6.1 mm | - | 0 W/m² | - |
| 1778027418 | 10° C | 99% | 1009.7 hPa | 6.1 mm | - | 0 W/m² | - |
| 1778027114 | 10° C | 99% | 1009.8 hPa | 11.43 mm | - | 0 W/m² | - |
| 1778026810 | 10° C | 99% | 1008.9 hPa | 9.65 mm | - | 0 W/m² | - |
| 1778026507 | 10° C | 99% | 1009.4 hPa | 6.6 mm | - | 0 W/m² | - |
| 1778026204 | 10° C | 99% | 1008.8 hPa | 4.32 mm | - | 0 W/m² | - |
| 1778025901 | 10° C | 99% | 1008.8 hPa | 0.51 mm | - | 0 W/m² | - |
| 1778025598 | 10.56° C | 99% | 1009.3 hPa | 1.78 mm | - | 0 W/m² | - |
| 1778025296 | 10.56° C | 99% | 1008.6 hPa | 8.38 mm | - | 4 W/m² | - |
| 1778024993 | 10.56° C | 99% | 1008.9 hPa | 0 mm | - | 4 W/m² | - |
| 1778024690 | 11.11° C | 99% | 1009.4 hPa | 0 mm | - | 5 W/m² | - |
| 1778024387 | 11.11° C | 99% | 1009.4 hPa | 0 mm | - | 4 W/m² | - |
| 1778024084 | 11.11° C | 99% | 1009.2 hPa | 0 mm | - | 9 W/m² | - |
| 1778023782 | 11.67° C | 99% | 1009.3 hPa | 0 mm | - | 1 W/m² | - |
| 1778023480 | 11.67° C | 99% | 1009.3 hPa | 0 mm | - | 0 W/m² | - |
| 1778023177 | 12.22° C | 99% | 1009 hPa | 0 mm | - | 1 W/m² | - |
| 1778022874 | 12.78° C | 99% | 1009.5 hPa | 0 mm | - | 1 W/m² | - |
| 1778022572 | 13.89° C | 99% | 1009.7 hPa | 0 mm | - | 0 W/m² | - |
| 1778022269 | 15.56° C | 99% | 1009.1 hPa | 0 mm | - | 0 W/m² | - |
| 1778021965 | 15.56° C | 99% | 1009 hPa | 0 mm | - | 5 W/m² | - |
* Rain latest hour (hover to see other rain measurements)
** Current wind speed in m/s (hover to see current wind gust speed)